Flag for Switzerland Weather past 2 weeks in Montreux, Vaud, Switzerland

Now
69 °F

Overcast.


Feels Like: 69 °F
Forecast: 49 / 64 °F
Wind: 3 mph from South

Location: Aigle

Current Time: Jul 29, 2015 at 6:38:05 PM

Latest Report: Jul 29, 2015 at 5:00 PM


Visibility: 13 mi

Pressure: 29.88 "Hg

Humidity: 75%

Dew point: 61 °F

Location of MontreuxLocation

Historic Weather in Montreux — Graph

°F

Montreux temperature yesterday

Maximum temperature yesterday: 74 °F (at 5:00 PM)
Minimum temperature yesterday: 58 °F (at 4:00 AM)
Average temperature yesterday: 67 °F

Past Weeks' High & Low Weather Summary

 TemperatureHumidityPressure
High94 °F (Jul 16, 4:00 PM)98% (Jul 24, 5:00 AM)30.21 "Hg (Jul 24, 5:00 AM)
Low51 °F (Jul 26, 7:00 AM)14% (Jul 16, 5:00 PM)29.71 "Hg (Jul 24, 4:00 PM)
Average73 °F65%29.94 "Hg
* Reported Jul 14 5:00 PM — Jul 29 5:00 PM, Montreux, Weather by CustomWeather, © 2015

Note: Actual official high and low records may vary slightly from our data, if they occured in-between our weather recording intervals... More about our weather records

Advertising

Montreux weather history for previous 24 hours

 ConditionsComfort  
Time TempWeatherWind HumidityBarometerVisibility
5:00 PM
Wed, Jul 29
69 °FOvercast.3 mph75%29.88 "Hg12 mi
4:00 PM66 °FMild.5 mph91%29.88 "HgN/A
3:00 PM65 °FMild.3 mph89%29.87 "HgN/A
2:00 PM66 °FOvercast.3 mph80%29.87 "Hg12 mi
1:00 PM64 °FMild.2 mph87%29.88 "HgN/A
12:00 PM63 °FMild.2 mph84%29.88 "HgN/A
11:00 AM64 °FOvercast.10 mph80%29.88 "Hg12 mi
10:00 AM66 °FMild.7 mph75%29.85 "HgN/A
9:00 AM65 °FMild.1 mph68%29.84 "HgN/A
8:00 AM62 °FPartly sunny.1 mph82%29.84 "Hg11 mi
7:00 AM62 °FCool.2 mph81%29.86 "HgN/A
6:00 AM62 °FCool.1 mph78%29.87 "HgN/A
4:00 AM66 °FMild.6 mph60%29.86 "HgN/A
3:00 AM65 °FMild.5 mph60%29.86 "HgN/A
2:00 AM65 °FMild.3 mph61%29.87 "HgN/A
1:00 AM64 °FMild.2 mph69%29.89 "HgN/A
12:00 AM69 °FMild.3 mph49%29.89 "HgN/A
10:00 PM
Tue, Jul 28
70 °FMild.7 mph50%29.86 "HgN/A
9:00 PM69 °FMild.3 mph51%29.85 "HgN/A
8:00 PM70 °FPartly sunny.5 mph48%29.84 "Hg25 mi
7:00 PM72 °FMild.8 mph40%29.82 "HgN/A
6:00 PM73 °FMild.12 mph42%29.83 "HgN/A
Weather by CustomWeather, © 2015

See weather overviewHow to use our weather pages